FW2726 Weather Reports


Display with metric or nautical units.
time (UTC)temp
F
wind
direction
speed
MPH
gust
MPH
rain 1hr
in
rain 24hr
in
rain mn
in
humidity
%
barometer
mb
20200705094851 53 224 2.0 0.0 0.00 0.00 0.00 93 1012.8
20200705093358 54 209 2.0 0.0 0.00 0.00 0.00 93 1012.7
20200705091848 54 255 3.0 0.0 0.00 0.00 0.00 93 1012.5
20200705090354 54 275 4.0 0.0 0.00 0.00 0.00 93 1012.4
20200705084859 54 263 3.0 0.0 0.00 0.00 0.00 93 1012.5
20200705083341 54 265 3.0 0.0 0.00 0.00 0.00 93 1012.6
20200705081850 54 232 2.0 0.0 0.00 0.00 0.00 93 1012.5
20200705080353 54 261 3.0 0.0 0.00 0.00 0.00 93 1012.6
20200705074850 54 221 2.0 0.0 0.00 0.00 0.00 93 1012.7
20200705073356 54 263 3.0 0.0 0.00 0.00 0.00 93 1012.5
20200705071841 54 236 3.0 0.0 0.00 0.00 0.00 93 1012.4
20200705070347 54 242 3.0 0.0 0.00 0.00 0.00 93 1012.2
20200705064843 53 225 2.0 0.0 0.00 0.00 0.00 93 1012.5
20200705063354 53 249 1.0 0.0 0.00 0.00 0.00 92 1012.6
20200705061853 53 249 1.0 0.0 0.00 0.00 0.00 92 1012.8
20200705060348 53 251 1.0 0.0 0.00 0.00 0.00 91 1012.8
20200705054854 54 255 1.0 0.0 0.00 0.00 0.00 91 1012.8
20200705053356 54 257 1.0 0.0 0.00 0.00 0.00 91 1012.8
20200705051901 54 259 2.0 0.0 0.00 0.00 0.00 89 1012.8
20200705050359 55 327 1.0 0.0 0.00 0.00 0.00 89 1012.6
20200705044856 56 327 0.0 0.0 0.00 0.00 0.00 87 1012.1
20200705043402 57 328 1.0 0.0 0.00 0.00 0.00 85 1012.1
20200705041856 58 328 2.0 0.0 0.00 0.00 0.00 85 1012.0
20200705040356 59 328 1.0 0.0 0.00 0.00 0.00 85 1012.1
20200705034856 60 328 1.0 0.0 0.00 0.00 0.00 84 1012.4
20200705033356 61 328 2.0 0.0 0.00 0.00 0.00 83 1012.1
20200705031901 61 328 2.0 0.0 0.00 0.00 0.00 83 1011.8
20200705030359 61 321 5.0 0.0 0.00 0.00 0.00 83 1011.7
20200705024900 61 334 6.0 0.0 0.00 0.00 0.00 82 1011.9
20200705023401 61 327 6.0 0.0 0.00 0.00 0.00 80 1011.7
20200705021847 62 287 9.0 0.0 0.00 0.00 0.00 76 1011.6
20200705020347 65 231 12.0 0.0 0.00 0.00 0.00 72 1011.0
20200705014846 72 286 6.0 0.0 0.00 0.00 0.00 63 1010.1
20200705013347 72 190 5.0 0.0 0.00 0.00 0.00 63 1009.3
20200705011852 75 208 4.0 0.0 0.00 0.00 0.00 57 1009.1
20200705010352 78 207 4.0 0.0 0.00 0.00 0.00 54 1009.7
20200705004851 78 211 4.0 0.0 0.00 0.00 0.00 50 1008.9
20200705003350 79 192 5.0 0.0 0.00 0.00 0.00 47 1008.8
20200705001856 80 240 6.0 0.0 0.00 0.00 0.00 51 1009.7
20200705000356 80 183 9.0 0.0 0.00 0.00 0.00 46 1008.8
20200704234857 80 234 7.0 0.0 0.00 0.00 0.00 43 1008.8
20200704233402 81 201 7.0 0.0 0.00 0.00 0.00 48 1009.7
20200704231842 81 0.0 0.0 0.00 0.00 0.00 45 1009.9
20200704230345 81 195 10.0 0.0 0.00 0.00 0.00 51 1009.9
20200704224853 81 209 6.0 0.0 0.00 0.00 0.00 46 1009.6
20200704223354 81 190 7.0 0.0 0.00 0.00 0.00 47 1009.6
20200704221845 82 214 9.0 0.0 0.00 0.00 0.00 54 1010.4
20200704220353 82 194 11.0 0.0 0.00 0.00 0.00 50 1010.5
20200704214851 81 178 11.0 0.0 0.00 0.00 0.00 56 1010.1
20200704213357 82 201 10.0 0.0 0.00 0.00 0.00 55 1010.0
20200704211846 81 205 9.0 0.0 0.00 0.00 0.00 57 1010.2
20200704210351 81 191 13.0 0.0 0.00 0.00 0.00 58 1010.3
20200704204852 81 193 12.0 0.0 0.00 0.00 0.00 59 1010.3
20200704203357 81 192 14.0 0.0 0.00 0.00 0.00 58 1010.3
20200704201858 81 182 15.0 0.0 0.00 0.00 0.00 53 1010.5
20200704200348 81 197 12.0 0.0 0.00 0.00 0.00 59 1010.5
20200704194858 81 180 12.0 0.0 0.00 0.00 0.00 58 1010.6
20200704193340 80 186 12.0 0.0 0.00 0.00 0.00 56 1010.7
20200704191852 81 198 12.0 0.0 0.00 0.00 0.00 55 1010.8
20200704190349 80 150 13.0 0.0 0.00 0.00 0.00 52 1011.0
20200704184853 81 184 13.0 0.0 0.00 0.00 0.00 52 1010.9
20200704183357 81 186 12.0 0.0 0.00 0.00 0.00 55 1011.0
20200704181848 81 174 9.0 0.0 0.00 0.00 0.00 63 1008.2
20200704180406 80 162 11.0 0.0 0.00 0.00 0.00 61 1011.2
20200704174900 79 154 13.0 0.0 0.00 0.00 0.00 57 1011.6
20200704173408 80 175 12.0 0.0 0.00 0.00 0.00 60 1011.3
20200704171851 80 0.0 0.0 0.00 0.00 0.00 58 1011.4
20200704170351 80 158 9.0 0.0 0.00 0.00 0.00 58 1011.4
20200704164856 79 122 4.0 0.0 0.00 0.00 0.00 68 1011.3
20200704163344 76 110 3.0 0.0 0.00 0.00 0.00 68 1011.5
20200704161851 75 109 3.0 0.0 0.00 0.00 0.00 75 1011.5
20200704160357 72 75 3.0 0.0 0.00 0.00 0.00 81 1011.5
20200704154840 70 67 3.0 0.0 0.00 0.00 0.00 81 1011.5
20200704153352 70 38 3.0 0.0 0.00 0.00 0.00 79 1011.5
20200704151855 71 28 4.0 0.0 0.00 0.00 0.00 81 1011.5
20200704150354 69 38 3.0 0.0 0.00 0.00 0.00 80 1011.9
20200704144852 69 38 2.0 0.0 0.00 0.00 0.00 77 1012.1
20200704141846 69 115 4.0 0.0 0.00 0.00 0.00 78 1012.2
20200704140356 67 112 4.0 0.0 0.00 0.00 0.00 80 1011.3
20200704134901 66 114 4.0 0.0 0.00 0.00 0.00 82 1012.5
20200704133354 62 107 4.0 0.0 0.00 0.00 0.00 86 1011.9
20200704131844 60 155 5.0 0.0 0.00 0.00 0.00 86 1012.3
20200704130359 61 109 3.0 0.0 0.00 0.00 0.00 85 1011.9
20200704124854 61 190 4.0 0.0 0.00 0.00 0.00 85 1013.4
20200704123402 61 188 4.0 0.0 0.00 0.00 0.00 85 1013.1
20200704121855 61 187 5.0 0.0 0.00 0.00 0.00 86 1013.2
20200704120400 61 188 6.0 0.0 0.00 0.00 0.00 87 1013.2
20200704114848 60 189 6.0 0.0 0.00 0.00 0.00 87 1013.3
20200704113359 60 164 6.0 0.0 0.00 0.00 0.00 86 1013.2
20200704111858 61 182 12.0 0.0 0.00 0.00 0.00 86 1012.9
20200704110459 58 186 9.0 0.0 0.00 0.00 0.00 90 1013.2
20200704104853 58 0.0 0.0 0.00 0.00 0.00 88 1012.5
20200704103359 58 144 6.0 0.0 0.00 0.00 0.00 88 1012.5
20200704101850 56 155 6.0 0.0 0.00 0.00 0.00 89 1012.8
20200704100345 55 158 6.0 0.0 0.00 0.00 0.00 88 1012.8